Location: Alphen aan den Rijn
(52.1277°N, 4.6689°E)
Time: 05:12:02
(UTC+02:00)

X-37B - Visible Passes

Search period start: 21 October 2021 00:00
Search period end: 31 October 2021 00:00
Orbit: 385 x 389 km, 45.0° (Epoch: 17 October)

Date Brightness Start Highest point End Pass type
(mag) Time Alt. Az. Time Alt. Az. Time Alt. Az.
21 Oct 2.4 19:28:29 10° SW 19:31:03 23° S 19:33:38 10° SE visible
21 Oct 3.3 21:04:57 10° WSW 21:06:02 15° SW 21:06:02 15° SW visible
22 Oct 2.7 20:06:31 10° WSW 20:08:55 20° S 20:10:16 16° SSE visible
23 Oct 2.6 19:08:12 10° WSW 19:10:45 22° S 19:13:18 10° SE visible
23 Oct 3.3 20:45:13 10° SW 20:46:42 13° SSW 20:46:50 13° SSW visible
24 Oct 3.1 19:46:29 10° WSW 19:48:35 17° SSW 19:50:42 10° SSE visible
26 Oct 3.4 19:26:44 10° SW 19:28:13 13° SSW 19:29:41 10° S visible
